TimeCST,TemperatureF,Dew PointF,Humidity,Sea Level PressureIn,VisibilityMPH,Wind Direction,Wind SpeedMPH,Gust SpeedMPH,PrecipitationIn,Events,Conditions,WindDirDegrees,DateUTC
12:53 AM,44.1,39.0,82,29.94,10.0,SSE,13.8,-,0.00,,Overcast,160,2013-01-27 06:53:00
1:26 AM,44.6,39.2,81,29.94,8.0,South,18.4,-,N/A,,Overcast,170,2013-01-27 07:26:00
1:53 AM,44.1,39.9,85,29.93,7.0,South,18.4,23.0,N/A,,Overcast,170,2013-01-27 07:53:00
2:53 AM,44.1,39.9,85,29.91,6.0,SSE,16.1,-,N/A,,Overcast,160,2013-01-27 08:53:00
3:53 AM,44.1,39.9,85,29.86,6.0,SSE,16.1,24.2,N/A,,Overcast,160,2013-01-27 09:53:00
4:53 AM,44.1,39.9,85,29.84,6.0,South,13.8,25.3,0.00,,Overcast,170,2013-01-27 10:53:00
5:06 AM,44.6,39.2,81,29.83,5.0,South,15.0,21.9,N/A,,Overcast,170,2013-01-27 11:06:00
5:53 AM,44.1,41.0,89,29.82,2.5,South,19.6,26.5,N/A,,Overcast,170,2013-01-27 11:53:00
6:04 AM,44.6,42.8,93,29.81,2.0,South,16.1,24.2,N/A,,Overcast,170,2013-01-27 12:04:00
6:27 AM,44.6,42.8,93,29.81,1.8,SSE,11.5,-,N/A,,Overcast,160,2013-01-27 12:27:00
6:42 AM,44.6,42.8,93,29.81,2.5,South,11.5,-,0.00,,Overcast,170,2013-01-27 12:42:00
6:53 AM,45.0,43.0,93,29.81,2.5,South,12.7,24.2,0.00,,Overcast,180,2013-01-27 12:53:00
7:53 AM,46.9,44.1,90,29.80,2.5,South,15.0,21.9,0.01,Rain,Light Rain,180,2013-01-27 13:53:00
8:53 AM,48.0,46.0,93,29.76,1.8,South,17.3,26.5,N/A,,Overcast,180,2013-01-27 14:53:00
9:53 AM,48.9,46.9,93,29.76,4.0,South,23.0,27.6,N/A,,Overcast,190,2013-01-27 15:53:00
10:15 AM,50.0,48.2,94,29.75,6.0,SSW,20.7,28.8,N/A,,Overcast,200,2013-01-27 16:15:00
10:53 AM,53.1,48.9,86,29.75,7.0,South,18.4,-,N/A,,Overcast,190,2013-01-27 16:53:00
11:53 AM,55.9,51.1,84,29.74,8.0,South,24.2,29.9,N/A,,Overcast,190,2013-01-27 17:53:00
12:53 PM,55.9,51.1,84,29.71,7.0,South,20.7,28.8,N/A,,Overcast,190,2013-01-27 18:53:00
1:43 PM,59.0,51.8,77,29.67,7.0,South,18.4,25.3,N/A,,Mostly Cloudy,180,2013-01-27 19:43:00
1:53 PM,60.1,52.0,75,29.66,7.0,South,20.7,27.6,N/A,,Scattered Clouds,190,2013-01-27 19:53:00
2:53 PM,64.0,53.1,67,29.66,8.0,South,15.0,24.2,N/A,,Clear,180,2013-01-27 20:53:00
3:53 PM,66.0,54.0,65,29.66,8.0,South,12.7,-,N/A,,Clear,180,2013-01-27 21:53:00
4:38 PM,62.6,44.6,52,29.70,9.0,WNW,12.7,20.7,N/A,,Mostly Cloudy,300,2013-01-27 22:38:00
4:53 PM,61.0,43.0,52,29.71,10.0,NW,18.4,-,N/A,,Overcast,310,2013-01-27 22:53:00
5:53 PM,52.0,39.9,63,29.75,10.0,NW,11.5,-,N/A,,Clear,310,2013-01-27 23:53:00
6:53 PM,46.0,37.9,73,29.79,10.0,NNW,5.8,-,N/A,,Partly Cloudy,340,2013-01-28 00:53:00
7:53 PM,46.9,37.9,71,29.81,9.0,NNW,6.9,-,N/A,,Overcast,330,2013-01-28 01:53:00
8:53 PM,42.1,37.0,82,29.82,8.0,WNW,3.5,-,N/A,,Clear,300,2013-01-28 02:53:00
9:53 PM,39.9,35.1,83,29.84,8.0,Calm,Calm,-,N/A,,Clear,0,2013-01-28 03:53:00
10:53 PM,37.9,34.0,86,29.84,7.0,Calm,Calm,-,N/A,,Clear,0,2013-01-28 04:53:00
11:53 PM,37.0,34.0,89,29.84,4.0,Calm,Calm,-,N/A,,Clear,0,2013-01-28 05:53:00